SCP
2 2 2 2 2 2 2 2 1 1 2 2 1 1 1 0 0 0 0 0 0 0 0 0 0 0 0 0 0 0 0 0 0 0 0 0 0 0 0 0 0 0 0
3 3 2 2 2 2 2 2 2 1 1 1 1 1 1 0 0 0 0 0 0 0 0 0 0 0 0 0 0 0 0 0 0 0 0 0 0 0 0 0 0 0 0
3 3 3 2 2 2 2 2 2 2 2 1 1 1 0 0 0 0 0 0 0 0 0 0 0 0 0 0 0 0 0 0 0 0 0 0 0 0 0 0 0 0 0
2 2 2 2 2 2 2 2 2 2 2 1 1 1 0 0 0 0 0 0 0 0 0 0 0 0 0 0 0 0 0 0 0 0 0 0 0 0 0 0 0 0 0
2 2 2 2 2 3 3 3 2 2 2 1 1 0 0 0 0 0 0 0 0 0 0 0 0 0 0 0 0 0 0 0 0 0 0 0 0 0 0 0 0 0 0
2 2 3 3 3 3 3 3 3 2 1 1 1 1 0 0 0 0 0 0 0 0 0 0 0 0 0 0 0 0 0 0 0 0 0 0 0 0 0 0 0 0 0
3 3 3 3 3 3 3 3 3 2 1 1 1 1 0 0 0 0 0 0 0 0 0 0 0 0 0 0 0 0 0 0 0 0 0 0 0 0 0 0 0 0 0
3 4 4 4 4 4 4 4 3 2 1 1 1 1 1 0 0 0 0 0 0 0 0 0 0 0 0 0 0 0 0 0 0 0 0 0 0 0 0 0 0 0 0
4 4 5 5 5 5 5 4 3 2 1 1 1 1 1 0 0 0 0 0 0 0 0 0 0 0 0 0 0 0 0 0 0 0 0 0 0 0 0 0 0 0 0
4 4 5 5 5 5 4 3 2 2 1 1 1 1 1 0 0 0 0 0 0 0 0 0 0 0 0 0 0 0 0 0 0 0 0 0 0 0 0 0 0 0 0
4 4 4 4 4 4 3 2 2 2 2 2 1 1 1 1 0 0 0 0 0 0 0 0 0 0 0 0 0 0 0 0 0 0 0 0 0 0 0 0 0 0 0
3 3 3 3 3 2 2 2 2 2 2 2 1 1 1 1 0 0 0 0 0 0 0 0 0 0 0 0 0 0 0 0 0 0 0 0 0 0 0 0 0 0 0
2 2 2 2 2 2 1 1 1 1 1 1 1 1 1 1 1 0 0 0 0 0 0 0 0 0 0 0 0 0 0 0 0 0 0 0 0 0 0 0 0 0 0
2 1 1 1 1 1 1 1 1 1 1 1 1 1 1 1 1 1 0 0 0 0 0 0 0 0 0 0 0 0 0 0 0 0 0 0 0 0 0 0 0 0 0
1 1 1 1 1 1 1 1 1 1 1 1 1 1 1 1 1 1 0 0 0 0 0 0 0 0 0 0 0 0 0 0 0 0 0 0 0 0 0 0 0 0 0
1 1 1 1 1 1 1 1 0 0 0 0 0 0 0 0 0 0 0 0 0 0 0 0 0 0 0 0 0 0 0 0 0 0 0 0 0 0 0 0 0 0 0
2 1 1 1 1 1 1 1 0 0 0 0 0 0 0 0 0 0 0 0 0 0 0 0 0 0 0 0 0 0 0 0 0 0 0 0 0 0 0 0 0 0 0
2 2 1 1 1 1 1 1 1 0 0 0 0 0 0 0 0 0 0 0 0 0 0 0 0 0 0 0 0 0 0 0 0 0 0 0 0 0 0 0 0 0 0
2 2 1 1 1 1 1 1 1 1 0 0 0 0 0 0 0 0 0 0 0 0 0 0 0 0 0 0 0 0 0 0 0 0 0 0 0 0 0 0 0 0 0
2 2 1 1 1 1 1 1 1 1 1 1 0 0 0 0 0 0 0 0 0 0 0 0 0 0 0 0 0 0 0 0 0 0 0 0 0 0 0 0 0 0 0
1 1 1 1 1 1 1 1 1 1 1 1 1 0 0 0 0 0 0 0 0 0 0 0 0 0 0 0 0 0 0 0 0 0 0 0 0 0 0 0 0 0 0
1 1 1 1 1 1 1 1 1 1 1 1 1 0 0 0 0 0 0 0 0 0 0 0 0 0 0 0 0 0 0 0 0 0 0 0 0 0 0 0 0 0 0
1 1 1 1 1 1 1 1 1 1 1 1 0 0 0 0 0 0 0 0 0 0 0 0 0 0 0 0 0 0 0 0 0 0 0 0 0 0 0 0 0 0 0
1 1 1 1 1 1 1 0 0 0 0 0 0 0 0 0 0 0 0 0 0 0 0 0 0 0 0 0 0 0 0 0 0 0 0 0 0 0 0 0 0 0 0
1 1 1 1 1 0 0 0 0 0 0 0 0 0 0 0 0 0 0 0 0 0 0 0 0 0 0 0 0 0 0 0 0 0 0 0 0 0 0 0 0 0 0
1 1 1 1 1 0 0 0 0 0 0 0 0 0 0 0 0 0 0 0 0 0 0 0 0 0 0 0 0 0 0 0 0 0 0 0 0 0 0 0 0 0 0
Wind_Speed
7 6 5 5 4 4 3 3 3 2 2 2 2 2 2 1 1 2 1 1 2 1 1 1 1 0 1 0 1 1 1 2 2 0 0 1 2 3 2 2 2 2 2
7 7 6 5 5 4 4 3 3 3 2 2 2 2 2 1 1 2 1 1 2 1 1 1 0 1 1 0 1 1 1 2 3 3 1 1 1 3 3 3 2 2 2
7 7 6 6 6 5 5 4 3 3 3 2 3 3 2 1 1 1 1 1 1 1 1 1 0 1 1 0 1 1 1 2 2 3 2 1 1 2 2 2 2 1 1
8 8 7 7 7 6 5 4 4 4 4 3 3 2 2 2 1 1 1 1 1 0 0 1 0 1 1 1 1 2 2 3 3 3 2 2 2 1 2 2 1 0 1
8 8 8 7 6 5 5 5 4 4 4 4 3 2 1 1 1 2 1 2 2 1 0 1 1 2 2 2 2 2 3 3 3 3 3 2 1 1 2 2 2 1 0
8 8 7 6 6 6 5 5 4 4 3 3 3 3 2 1 2 3 2 2 2 2 1 0 1 2 3 3 4 4 5 5 4 3 2 3 3 3 2 2 2 1 1
8 7 7 7 7 6 6 6 5 5 4 4 4 3 3 2 2 3 3 2 2 2 2 1 1 2 2 3 4 4 3 3 5 5 4 4 4 4 4 3 2 2 2
7 7 7 7 7 6 6 6 5 4 4 4 4 4 3 2 3 4 4 2 1 1 2 2 2 2 2 3 4 3 2 1 2 3 4 4 4 4 5 5 4 2 0
7 7 7 8 7 7 7 6 5 5 4 4 4 4 4 3 4 5 5 2 2 1 1 2 3 2 2 4 4 3 2 1 1 2 3 2 4 5 5 3 3 2 0
8 7 7 7 7 7 7 6 5 5 5 4 4 4 5 4 5 6 6 3 2 2 1 1 2 3 4 5 4 4 2 1 1 2 2 2 1 3 4 5 5 3 2
7 6 6 7 7 7 6 5 5 5 4 4 4 4 4 5 5 6 7 4 4 3 2 2 2 4 5 5 4 4 4 3 2 2 1 1 1 0 1 2 3 4 3
6 6 6 6 6 6 5 5 5 5 5 5 4 4 3 3 5 6 7 7 5 4 3 3 3 5 4 4 3 3 3 4 2 2 1 0 1 1 2 2 2 3 3
6 6 5 5 5 5 6 6 4 4 4 4 4 4 4 3 3 6 8 8 8 4 3 5 5 5 4 3 3 3 3 3 2 2 2 2 2 2 1 0 1 1 1
6 6 5 5 5 4 4 5 5 5 5 5 5 5 4 3 3 3 3 4 5 4 2 2 3 3 2 2 1 1 2 2 3 2 2 2 1 1 1 1 1 1 1
6 5 5 5 5 5 4 4 5 5 6 6 6 5 5 5 7 8 6 5 5 4 3 2 1 1 1 1 1 1 1 1 1 1 1 1 1 1 2 1 1 1 1
6 5 5 5 5 4 4 3 4 5 7 8 8 7 6 7 8 10 10 9 8 8 5 3 3 3 4 3 3 2 2 2 2 2 2 2 2 2 2 2 1 2 3
7 6 5 5 5 5 5 5 4 3 3 5 7 8 8 8 9 10 10 9 8 9 4 4 4 4 4 4 4 3 3 3 3 3 3 3 3 2 2 3 2 2 3
6 7 6 6 6 6 6 5 5 5 4 3 4 7 9 9 9 10 9 7 4 4 4 4 4 4 4 4 4 4 3 3 3 3 3 2 3 3 3 3 3 4 4
5 5 5 5 5 5 5 5 5 5 5 3 2 2 5 6 6 7 8 5 6 5 5 4 4 4 4 4 4 4 4 4 3 3 3 3 3 3 3 3 3 5 4
4 6 5 4 4 4 5 5 5 5 5 5 5 4 4 4 4 4 5 5 5 5 5 5 5 4 4 4 4 4 4 3 3 3 3 3 3 3 4 4 4 3 4
3 4 6 4 4 5 5 5 5 5 5 5 5 6 9 6 6 6 6 6 6 6 6 5 4 4 4 4 4 4 5 4 4 4 4 4 3 3 3 3 4 4 4
3 3 3 4 4 4 4 4 4 5 5 5 4 5 10 6 5 5 5 5 5 5 4 4 4 4 4 4 4 4 4 4 4 4 4 4 3 3 3 3 3 3 3
3 3 4 3 3 4 4 3 3 4 4 4 4 4 5 5 5 5 5 4 4 4 3 4 4 3 3 3 3 3 4 4 4 4 4 3 3 3 3 3 3 3 3
3 3 3 3 3 3 4 3 3 4 4 4 4 4 5 5 5 5 4 4 3 3 3 3 4 4 4 3 2 2 3 3 3 3 4 4 3 3 2 2 3 4 3
3 3 3 3 3 3 3 3 3 3 3 4 4 4 4 4 4 4 3 3 4 3 3 3 3 3 5 5 4 3 3 4 3 3 3 3 3 3 3 3 3 3 3
2 2 2 2 2 2 2 3 3 3 3 3 3 4 4 3 3 3 3 3 3 4 3 3 3 4 4 4 4 4 3 3 3 3 3 2 3 2 2 2 3 2 3
Wind_Direction
176 177 175 174 171 165 164 165 156 143 137 139 140 125 106 82 79 83 81 95 96 67 48 86 60 60 79 87 113 126 124 131 143 146 96 116 119 126 118 109 102 99 118
174 170 173 168 165 168 170 168 155 146 144 150 145 134 125 108 92 95 92 87 104 93 53 77 40 48 65 92 113 120 129 124 135 138 106 104 108 139 130 126 116 116 113
166 166 171 170 170 177 176 171 160 154 150 138 138 144 143 132 115 118 124 104 100 110 105 109 101 92 43 48 101 115 118 114 109 128 125 99 89 124 113 115 114 105 135
166 170 180 183 181 179 173 169 167 160 155 154 152 156 157 147 140 141 131 114 108 85 75 107 108 133 159 132 113 123 120 110 106 116 112 104 93 98 118 131 115 102 164
169 176 186 185 178 170 169 171 167 163 163 160 155 159 162 161 169 161 160 148 145 136 36 38 96 113 110 116 122 137 134 129 124 123 125 117 121 134 175 174 154 131 319
171 182 182 175 172 172 173 169 163 164 163 156 165 172 184 203 164 157 158 155 156 153 152 51 72 78 93 105 114 125 142 150 155 150 151 165 185 182 176 169 146 133 256
172 177 175 173 174 179 175 169 171 174 167 163 173 175 187 204 170 165 164 158 161 175 173 153 101 82 84 99 98 92 99 130 153 159 166 186 189 192 175 174 176 173 204
175 178 177 175 177 177 174 177 181 177 178 183 186 185 185 205 184 174 166 156 154 180 178 160 139 126 124 121 110 89 77 90 175 165 177 191 190 185 184 181 177 159 118
178 182 182 178 179 179 181 185 185 178 185 191 188 187 192 214 198 179 169 158 150 173 184 163 153 153 153 135 120 110 82 16 44 118 141 159 165 164 160 136 133 135 199
188 187 181 177 180 185 190 188 184 181 191 188 193 199 197 208 203 186 173 168 168 174 178 191 178 166 161 148 143 141 146 197 103 69 65 68 129 166 162 168 169 162 168
186 179 180 182 186 187 187 186 178 177 181 190 198 209 209 210 207 195 180 175 181 176 183 201 211 175 163 164 159 167 183 170 153 136 107 61 34 108 208 189 179 171 174
171 175 182 185 188 183 179 185 183 179 186 196 200 213 223 216 202 197 189 186 177 173 192 203 202 186 180 179 174 178 170 148 134 129 124 185 228 241 241 226 212 207 204
172 180 186 184 184 179 182 188 187 188 196 203 202 211 221 217 210 202 196 193 184 181 198 197 194 193 193 201 204 184 162 150 150 157 193 224 227 225 219 254 294 269 272
181 187 184 181 183 184 189 191 193 197 204 208 207 214 216 211 211 205 197 194 194 192 192 196 192 191 189 206 212 207 180 171 172 184 200 217 208 169 192 199 220 255 286
184 187 186 185 184 189 195 199 201 208 205 204 209 202 199 213 218 200 190 193 193 192 161 137 139 158 201 223 220 224 195 161 181 194 189 206 221 218 228 214 191 181 205
184 189 191 193 193 193 188 206 227 219 222 218 211 199 209 213 197 192 197 197 190 170 152 172 194 197 200 204 203 211 209 207 209 200 197 204 214 221 229 225 198 198 221
193 195 195 195 194 196 194 197 214 246 235 222 220 211 206 201 195 192 195 190 183 166 169 195 200 203 208 205 202 201 209 213 204 200 205 212 218 222 219 220 214 217 234
199 200 198 200 200 202 203 205 204 205 221 237 233 221 213 203 195 191 182 159 166 185 200 205 209 207 207 206 205 205 210 209 204 209 216 221 218 219 223 223 219 217 227
208 209 205 205 204 204 205 204 206 209 211 210 196 216 212 200 190 183 168 175 185 196 205 211 213 208 205 203 203 202 202 205 206 206 215 222 223 222 229 228 226 231 226
216 216 208 208 209 210 207 204 207 208 208 204 202 200 171 160 180 189 194 202 200 202 202 207 211 210 204 201 199 198 201 205 205 210 219 225 226 221 226 228 225 227 228
212 212 207 212 216 215 210 207 206 205 208 208 209 198 178 183 195 196 198 204 208 210 207 206 207 207 207 203 201 200 202 210 210 212 219 224 222 225 228 226 226 226 228
200 204 209 216 219 215 213 208 203 202 203 207 209 194 187 190 193 194 198 204 209 209 202 192 198 204 203 199 196 195 203 213 218 218 221 224 223 225 225 227 232 231 231
199 206 209 212 210 208 209 209 207 203 202 207 198 182 180 195 199 198 200 201 195 197 194 186 188 199 199 190 183 185 199 213 217 214 217 222 226 228 227 227 229 231 237
206 204 207 207 203 204 203 199 201 206 200 196 190 186 184 188 193 197 199 192 186 190 185 181 181 181 176 171 175 191 207 216 214 211 207 209 218 229 232 237 238 233 234
207 195 199 200 198 198 197 194 198 199 194 189 185 182 179 179 187 193 194 185 175 172 172 173 174 179 179 182 187 199 211 204 207 209 205 203 209 220 231 235 236 234 234
206 200 196 192 196 196 194 193 200 193 184 181 179 177 173 175 182 184 179 171 168 169 173 174 170 171 176 190 195 198 201 200 207 212 204 198 204 225 237 240 240 234 235